User: anonymous   Login
Location: Caltech
(34.1382°N, 118.1253°W)
Time: 12:49:24
(UTC-07:00)
Language:

KITSAT 1 - Orbit

View from above orbital plane
View from above orbital plane
View from above satellite
View from above satellite

Ground track
Ground track

The orbit data is extracted from the following two-line orbital elements,

1 22077U 92052B   15116.48526737 -.00000063  00000-0 -54924-5 0  9992
2 22077 066.0835 166.0389 0009111 325.9154 136.0191 12.86504401 66703
Epoch (UTC): 26 April 2015 11:38:47
Eccentricity: 0.0009111
inclination: 66.0835°
perigee height: 1308 km
apogee height: 1322 km
right ascension of ascending node: 166.0389°
argument of perigee: 325.9154°
revolutions per day: 12.86504401
mean anomaly at epoch: 136.0191°
orbit number at epoch: 6670

The dashed part of the orbit path shows where the satellite is in the earth's shadow,  

DLR